STARLINK-1666, 46357

Orbit data source: Space-Track

STARLINK-1666, 46357 is a payload satellite owned by SpaceX/Seattle (US) in LEO that was launched on Thu, 03 Sep 2020 UTC via an FALCON 9 launch vehicle from the Air Force Eastern Test Range (AFETR). Payload-class satellites include a variety of spacecraft equipped with specific instruments for various scientific and technological missions. These include communications satellites like Starlink; space stations such as the ISS; scientific satellites like the Hubble; Earth observation satellites from companies like Planet Labs, Umbra, and HawkEye 360; GPS; miniature CubeSats for education and research; and military/defense satellites.

Loading next visibility...
Identifier
46357, 2020-062AJ
Orbit
LEO
Country
Flag of USUS
Related business
Manufacturer
SpaceX/Seattle
Mission
Operational Commercial Communications
Bus & Motor
STARLINK, Unknown motor
Mass
260 kg wet, ~248 kg dry
Launch date (UTC)
2020-09-03 (5 years ago)
Launch vehicle
FALCON 9
Launch site
Air Force Eastern Test Range (AFETR)
Object type
Payload
Rocket body
Debris
Shape & HBR
Box + 1 Pan, 10.1 m
Radar Cross Section
13.562 m², Large (>1 m²)

Expand to show TLE details & history
Last TLE update: 9 hours ago

TLE from 9 hours ago
0 STARLINK-1666
1 46357U 20062AJ  25350.00003472  .01727141  00000-0  81292-1 0  9992
2 46357  53.0547  12.1552 0002215  92.9230  69.4496 15.15937988  5797
Epoch: 2025-12-16T00:00Z
TLE epoch observation values (Epoch: 2025-12-16T00:00:02.999Z)
Latitude
13.99452°
Longitude
96.50931°
Altitude
517.738 km
Speed
7.607 km/s
True Right ascension
12h 05m 38s
True Declination
13° 54' 40"
Sunlit
Object was in daylight at epoch
Visualization orbit readout
Latitude
Unknown
Longitude
Unknown
Altitude
Unknown
Speed
Unknown
Apparent Right ascension
Unknown
Apparent Declination
Unknown
Sunlit
N/A
Visualization observer readout
Local Sidereal Time
08:10:23
Azimuth
Unknown
Elevation
Unknown
Doppler factor
Unknown
Orbital elements
Apogee altitude
519.932 km
Perigee altitude
516.877 km
Semi-major axis
6,896.541 km
Eccentricity
0.00022
Inclination
53.0547°
RAAN
12.1552°
Arg. of periapsis
92.923°
True anomaly
69.47337°
Mean anomaly
69.4496°
Eccentric anomaly
69.46148°
Mean motion
3.78962 °/min
Orbital period
95 mins
BSTAR
0.081292
Loading maneuver chart data...
Computing Atmospheric mass density...
Loading historical data...
Loading historical data...
Loading historical data...
Loading historical data...
Loading historical data...
Loading historical data...
Loading historical data...

Documentation

Showing up to 5 results
|